{"data":{"norad_id":66594,"epoch":"2026-09-20T16:07:55.853472Z","epoch_age_seconds":72208,"freshness":"FRESH","line1":"1 66594U 25270G   26263.67217423  .00009879  00000+0  36796-3 0  9993","line2":"2 66594  43.0013  35.2177 0001088 280.6235  79.4494 15.27586935 47336","mean_motion":15.27586935,"eccentricity":0.0001088,"inclination_deg":43.0013,"raan_deg":35.2177,"arg_perigee_deg":280.6235,"mean_anomaly_deg":79.4494,"bstar":0.00036796,"rev_number":4733,"period_min":94.266320757712,"perigee_km":482.28183544543,"apogee_km":483.77482502129,"semimajor_km":6861.1653302334,"source":"CELESTRAK","updated_at":"2026-09-21T09:00:35.976855Z"}}